• In Czech Republic
  • List of Countries
  • For 7 days
  • Water Temperature
  • Satellite Maps
  • Weather Map
  • Weather Widgets
  • user-avatar
    Login

    Hourly Weather Jalalabad

    Today, 23 May, Wednesday

    Time Temperature Precipitation Wind Pressure Humidity
    00:00 +26°C° 0 mm 2 mps 709 mmHg 25%
    01:00 +25°C° 0 mm 3 mps 709 mmHg 26%
    02:00 +25°C° 0 mm 3 mps 709 mmHg 27%
    03:00 +24°C° 0 mm 3 mps 709 mmHg 29%
    04:00 +24°C° 0 mm 3 mps 709 mmHg 30%
    05:00 +22°C° 0 mm 3 mps 709 mmHg 32%
    06:00 +25°C° 0 mm 3 mps 709 mmHg 29%
    07:00 +26°C° 0 mm 3 mps 709 mmHg 27%
    08:00 +28°C° 0 mm 3 mps 709 mmHg 25%
    09:00 +29°C° 0 mm 3 mps 709 mmHg 23%
    10:00 +30°C° 0 mm 3 mps 709 mmHg 21%
    11:00 +31°C° 0 mm 3 mps 709 mmHg 19%
    12:00 +33°C° 0 mm 3 mps 709 mmHg 18%
    13:00 +33°C° 0 mm 3 mps 708 mmHg 17%
    14:00 +34°C° 0 mm 2 mps 708 mmHg 15%
    15:00 +34°C° 0 mm 3 mps 708 mmHg 15%
    16:00 +34°C° 0 mm 3 mps 707 mmHg 15%
    17:00 +34°C° 0 mm 3 mps 707 mmHg 14%
    18:00 +33°C° 0 mm 3 mps 707 mmHg 17%
    19:00 +31°C° 0 mm 3 mps 707 mmHg 19%
    20:00 +29°C° 0 mm 3 mps 708 mmHg 21%
    21:00 +29°C° 0 mm 3 mps 708 mmHg 23%
    22:00 +28°C° 0 mm 3 mps 708 mmHg 25%
    23:00 +28°C° 0 mm 3 mps 708 mmHg 27%

    Tomorrow, 24 May, Thursday

    Time Temperature Precipitation Wind Pressure Humidity
    00:00 +27°C° 0 mm 3 mps 708 mmHg 29%
    01:00 +27°C° 0 mm 3 mps 708 mmHg 30%
    02:00 +26°C° 0 mm 3 mps 708 mmHg 31%
    03:00 +26°C° 0 mm 3 mps 707 mmHg 32%
    04:00 +25°C° 0 mm 3 mps 707 mmHg 32%
    05:00 +24°C° 0 mm 3 mps 707 mmHg 32%
    06:00 +26°C° 0 mm 3 mps 707 mmHg 29%
    07:00 +27°C° 0 mm 3 mps 707 mmHg 25%
    08:00 +29°C° 0 mm 3 mps 707 mmHg 21%
    09:00 +30°C° 0 mm 2 mps 707 mmHg 20%
    10:00 +31°C° 0 mm 2 mps 707 mmHg 18%
    11:00 +32°C° 0 mm 2 mps 707 mmHg 16%
    12:00 +34°C° 0 mm 2 mps 707 mmHg 15%
    13:00 +35°C° 0 mm 2 mps 707 mmHg 14%
    14:00 +35°C° 0 mm 2 mps 707 mmHg 14%
    15:00 +35°C° 0.1 mm 2 mps 706 mmHg 14%
    16:00 +35°C° 0.1 mm 2 mps 706 mmHg 15%
    17:00 +35°C° 0.1 mm 3 mps 706 mmHg 15%
    18:00 +34°C° 0.1 mm 2 mps 706 mmHg 18%
    19:00 +32°C° 0.1 mm 1 mps 707 mmHg 21%
    20:00 +29°C° 0.1 mm 0 mps 707 mmHg 24%
    21:00 +30°C° 0 mm 1 mps 707 mmHg 24%
    22:00 +30°C° 0 mm 1 mps 707 mmHg 24%
    23:00 +29°C° 0 mm 1 mps 708 mmHg 24%

    Day after tomorrow, 25 May, Friday

    Time Temperature Precipitation Wind Pressure Humidity
    00:00 +29°C° 0 mm 2 mps 707 mmHg 25%
    01:00 +28°C° 0 mm 2 mps 707 mmHg 26%
    02:00 +27°C° 0 mm 2 mps 707 mmHg 27%
    03:00 +27°C° 0 mm 2 mps 707 mmHg 27%
    04:00 +26°C° 0 mm 2 mps 707 mmHg 28%
    05:00 +26°C° 0 mm 2 mps 706 mmHg 28%
    06:00 +27°C° 0 mm 2 mps 707 mmHg 25%
    07:00 +29°C° 0 mm 2 mps 707 mmHg 21%
    08:00 +30°C° 0 mm 2 mps 708 mmHg 18%
    09:00 +31°C° 0 mm 2 mps 708 mmHg 17%
    10:00 +34°C° 0 mm 2 mps 708 mmHg 16%
    11:00 +34°C° 0 mm 1 mps 708 mmHg 15%
    12:00 +35°C° 0 mm 2 mps 707 mmHg 15%
    13:00 +36°C° 0 mm 2 mps 707 mmHg 14%
    14:00 +37°C° 0 mm 2 mps 707 mmHg 14%
    15:00 +37°C° 0 mm 2 mps 707 mmHg 14%
    16:00 +37°C° 0 mm 2 mps 706 mmHg 14%
    17:00 +37°C° 0 mm 3 mps 706 mmHg 15%
    18:00 +35°C° 0 mm 2 mps 706 mmHg 18%
    19:00 +34°C° 0 mm 2 mps 707 mmHg 20%
    20:00 +32°C° 0 mm 1 mps 707 mmHg 23%
    21:00 +31°C° 0 mm 1 mps 707 mmHg 23%
    22:00 +31°C° 0 mm 2 mps 707 mmHg 23%
    23:00 +30°C° 0 mm 2 mps 707 mmHg 24%

    26 May, Saturday

    Time Temperature Precipitation Wind Pressure Humidity
    00:00 +29°C° 0 mm 2 mps 707 mmHg 25%
    01:00 +29°C° 0 mm 2 mps 706 mmHg 26%
    02:00 +28°C° 0 mm 2 mps 706 mmHg 27%
    03:00 +27°C° 0 mm 2 mps 706 mmHg 27%
    04:00 +27°C° 0 mm 2 mps 706 mmHg 28%
    05:00 +27°C° 0 mm 2 mps 706 mmHg 28%
    06:00 +28°C° 0 mm 2 mps 706 mmHg 25%
    07:00 +29°C° 0 mm 2 mps 706 mmHg 22%
    08:00 +31°C° 0 mm 2 mps 707 mmHg 19%
    09:00 +32°C° 0 mm 2 mps 707 mmHg 18%
    10:00 +34°C° 0 mm 2 mps 707 mmHg 18%
    11:00 +35°C° 0 mm 2 mps 707 mmHg 17%
    12:00 +35°C° 0 mm 2 mps 706 mmHg 17%
    13:00 +36°C° 0 mm 2 mps 706 mmHg 16%
    14:00 +37°C° 0 mm 2 mps 706 mmHg 16%
    15:00 +36°C° 0 mm 2 mps 706 mmHg 16%
    16:00 +36°C° 0 mm 2 mps 706 mmHg 17%
    17:00 +36°C° 0 mm 3 mps 705 mmHg 17%
    18:00 +35°C° 0 mm 2 mps 706 mmHg 20%
    19:00 +34°C° 0 mm 2 mps 706 mmHg 22%
    20:00 +31°C° 0 mm 2 mps 706 mmHg 24%
    21:00 +31°C° 0 mm 2 mps 706 mmHg 25%
    22:00 +30°C° 0 mm 2 mps 707 mmHg 25%
    23:00 +30°C° 0 mm 2 mps 707 mmHg 25%

    27 May, Sunday

    Time Temperature Precipitation Wind Pressure Humidity
    00:00 +29°C° 0 mm 2 mps 706 mmHg 26%
    01:00 +29°C° 0 mm 2 mps 706 mmHg 26%
    02:00 +28°C° 0 mm 2 mps 706 mmHg 27%
    03:00 +28°C° 0 mm 2 mps 706 mmHg 29%
    04:00 +27°C° 0 mm 2 mps 706 mmHg 30%
    05:00 +27°C° 0 mm 2 mps 705 mmHg 32%
    06:00 +28°C° 0 mm 2 mps 706 mmHg 29%
    07:00 +30°C° 0 mm 3 mps 706 mmHg 27%
    08:00 +33°C° 0 mm 3 mps 707 mmHg 24%
    09:00 +34°C° 0 mm 3 mps 707 mmHg 22%
    10:00 +35°C° 0 mm 3 mps 707 mmHg 19%
    11:00 +36°C° 0 mm 3 mps 707 mmHg 17%
    12:00 +37°C° 0 mm 3 mps 706 mmHg 15%
    13:00 +38°C° 0 mm 3 mps 706 mmHg 14%
    14:00 +38°C° 0 mm 3 mps 705 mmHg 12%
    15:00 +38°C° 0 mm 4 mps 705 mmHg 12%
    16:00 +38°C° 0 mm 4 mps 705 mmHg 12%
    17:00 +40°C° 0 mm 4 mps 705 mmHg 11%
    18:00 +37°C° 0 mm 4 mps 705 mmHg 13%
    19:00 +35°C° 0 mm 4 mps 706 mmHg 15%
    20:00 +34°C° 0 mm 4 mps 706 mmHg 17%
    21:00 +33°C° 0 mm 5 mps 706 mmHg 19%
    22:00 +32°C° 0 mm 5 mps 706 mmHg 20%
    23:00 +32°C° 0 mm 5 mps 707 mmHg 22%

    28 May, Monday

    Time Temperature Precipitation Wind Pressure Humidity
    00:00 +30°C° 0 mm 5 mps 706 mmHg 23%
    01:00 +29°C° 0 mm 5 mps 706 mmHg 24%
    02:00 +29°C° 0 mm 5 mps 706 mmHg 26%
    03:00 +28°C° 0 mm 5 mps 706 mmHg 26%
    04:00 +28°C° 0 mm 5 mps 705 mmHg 26%
    05:00 +27°C° 0 mm 4 mps 705 mmHg 27%
    06:00 +28°C° 0 mm 5 mps 706 mmHg 25%
    07:00 +30°C° 0 mm 5 mps 706 mmHg 23%
    08:00 +32°C° 0 mm 6 mps 706 mmHg 21%
    09:00 +34°C° 0 mm 6 mps 706 mmHg 19%
    10:00 +35°C° 0 mm 6 mps 706 mmHg 18%
    11:00 +36°C° 0 mm 5 mps 705 mmHg 16%
    12:00 +37°C° 0 mm 5 mps 705 mmHg 15%
    13:00 +39°C° 0 mm 5 mps 704 mmHg 15%
    14:00 +39°C° 0 mm 5 mps 704 mmHg 14%
    15:00 +39°C° 0 mm 5 mps 704 mmHg 14%
    16:00 +39°C° 0 mm 5 mps 703 mmHg 15%
    17:00 +39°C° 0 mm 5 mps 703 mmHg 15%
    18:00 +36°C° 0 mm 5 mps 704 mmHg 18%
    19:00 +35°C° 0 mm 5 mps 704 mmHg 21%
    20:00 +33°C° 0 mm 4 mps 704 mmHg 24%
    21:00 +32°C° 0 mm 4 mps 704 mmHg 25%
    22:00 +32°C° 0 mm 4 mps 704 mmHg 27%
    23:00 +30°C° 0 mm 4 mps 704 mmHg 28%
    Show more